{"data":{"norad_id":47158,"intl_designator":"2020-088AN","name":"STARLINK-1873","alt_names":[],"object_type":"PAYLOAD","status":"ACTIVE","operator":null,"country":"US","launch_date":"2020-11-25","launch_site_code":"AFETR","launch_vehicle":null,"mission":null,"orbit_class":"UNKNOWN","rcs_meters":null,"size_class":null,"mass_kg":null,"dimensions":null,"purposes":["comms"],"wikipedia_slug":null,"has_3d_model":false,"image_url":null,"decayed_at":null,"tle_current":{"epoch":"2026-05-25T00:29:07.245600Z","epoch_age_seconds":73051,"freshness":"FRESH","line1":"1 47158U 20088AN  26145.02022275  .00101023  00000+0  71163-3 0  9998","line2":"2 47158  53.0426 253.9920 0006478   2.4431 357.6618 15.73302105304253","mean_motion":15.73302105,"eccentricity":0.0006478,"inclination_deg":53.0426,"raan_deg":253.992,"arg_perigee_deg":2.4431,"mean_anomaly_deg":357.6618,"bstar":0.00071163,"rev_number":30425,"period_min":91.527240408796,"perigee_km":345.10894156406,"apogee_km":353.82522541463,"semimajor_km":6727.6040834893,"source":"CELESTRAK","updated_at":"2026-05-25T13:38:16.522296Z"}}}